Regional Weather Roundup
Issued by NWS

Home | Current Version | Previous Version | Text Only | Print | Product List | Glossary On
Versions: 1 2 3 4 5 6 7 8 9 10 11 12 13 14 15 16 17 18 19 20 21 22 23 24 25 26 27 28 29 30 31 32 33 34 35 36 37 38 39 40 41 42 43 44 45 46 47 48 49 50
000
ASUS44 KFWD 281703
RWRTX
NORTH TEXAS HOURLY WEATHER ROUNDUP
NATIONAL WEATHER SERVICE FORT WORTH TX
1200 PM CDT THU APR 28 2016

NOTE: "FAIR" INDICATES FEW OR NO CLOUDS BELOW 12,000 FEET WITH NO
SIGNIFICANT WEATHER AND/OR OBSTRUCTIONS TO VISIBILITY.

TXZ118-119-281800-
DALLAS/FORT WORTH METROPLEX

CITY           SKY/WX    TMP DP  RH WIND       PRES   REMARKS
DFW AIRPORT    SUNNY     80  54  40 SE13      29.90S
DALLAS LOVE    SUNNY     80  52  37 SE12G17   29.90S
FTW MEACHAM    SUNNY     80  54  40 SE18G24   29.89S
DAL-EXECUTIVE  SUNNY     77  57  50 SE12      29.90S
FTW-ALLIANCE   SUNNY     78  55  44 SE13      29.90S
FTW-NAS-JRB    SUNNY     79  53  40 SE17G25   29.90S
FTW-SPINKS     SUNNY     77  57  50 SE15      29.92R
ARLINGTON      SUNNY     80  56  43 E13       29.90S
GRAND PRAIRIE  SUNNY     77  54  44 SE7G18    29.92R
ADDISON        SUNNY     79  55  44 SE13G23   29.91S
MESQUITE       SUNNY     79  57  47 E8        29.91R
LANCASTER      SUNNY     76  56  50 SE8G16    29.92R
$$

TXZ091>094-102>105-117-120-121-131>134-281800-
NORTH CENTRAL TEXAS

CITY           SKY/WX    TMP DP  RH WIND       PRES   REMARKS
SHRMAN/DENISON SUNNY     71  52  50 SE12      29.94R
GAINESVILLE    SUNNY     74  56  52 SE14      29.94S
BRIDGEPORT     SUNNY     75  57  52 SE10G18   29.92S
DECATUR        SUNNY     74  53  47 E14G21    29.92S
DENTON         SUNNY     77  54  44 SE12G20   29.90S
MCKINNEY       SUNNY     76  53  44 E10       29.91S
GREENVILLE     SUNNY     77  50  38 E8        29.91F
ROCKWALL       SUNNY     77  56  48 SE12G18   29.90R
TERRELL        SUNNY     78  55  44 E12       29.91S
WAXAHACHIE     SUNNY     76  60  56 SE9       29.92S
CLEBURNE       SUNNY     77  63  61 SE13      29.92S
GRANBURY       SUNNY     79  59  50 SE10G17   29.90S
$$

TXZ083>090-098>101-113>116-127>130-139>142-154-155-281800-
WESTERN NORTH TEXAS

CITY           SKY/WX    TMP DP  RH WIND       PRES   REMARKS
WICHITA FALLS  SUNNY     74  55  51 SE18      29.90F
WF-KICKAPOO    SUNNY     75  51  42 E17G25    29.92S
VERNON         SUNNY     72  49  44 SE17G23   29.91F
ABILENE        SUNNY     79  56  45 SE23G29   29.84F
ABILENE-DYESS  SUNNY     79  56  45 SE17G29   29.81F
BRECKENRIDGE   SUNNY     80  53  39 S20G26    29.87F HAZE
MINERAL WELLS  SUNNY     78  57  48 SE14G22   29.89R
STEPHENVILLE   SUNNY     78  57  48 SE16      29.92S
COMANCHE       SUNNY     78  58  50 SE14G22   29.89S
BROWNWOOD      SUNNY     77  57  50 SE14G23   29.86F
COLEMAN        SUNNY     78  56  46 SE15G23   29.86S
$$

TXZ143>147-156>162-174-175-281800-
CENTRAL TEXAS

CITY           SKY/WX    TMP DP  RH WIND       PRES   REMARKS
WACO           SUNNY     75  62  64 SE9       29.89F
WACO-TSTC      SUNNY     73  64  73 SE6       29.90F
WACO-MCGREGOR  SUNNY     75  66  73 E10       29.89F
HILLSBORO      SUNNY     76  60  56 SE10      29.90S
CORSICANA      SUNNY     80  60  50 SE10      29.91S
MEXIA          SUNNY     75  65  71 SE9       29.90R
HEARNE         SUNNY     78  68  71 CALM      29.89F
CAMERON        MOSUNNY   79  67  67 SE8       29.87F
TEMPLE         SUNNY     77  68  73 SE12      29.89F
KILLEEN        SUNNY     78  64  63 SE13      29.86F
KILLEEN-SKYLRK SUNNY     77  66  68 SE13      29.88F
FORT HOOD      SUNNY     76  65  67 SE16      29.86S
GATESVILLE     SUNNY     79  63  57 MISG      29.90F
HAMILTON       SUNNY     77  62  60 SE17      29.90S
LAMPASAS       SUNNY     78  64  62 SE13G18   29.87S
$$

TXZ095>097-106>112-122>126-135>138-148>153-164>167-281800-
EAST TEXAS

CITY           SKY/WX    TMP DP  RH WIND       PRES   REMARKS
PARIS          SUNNY     75  54  46 SE13      29.94S
SULPHUR SPRNGS   N/A     77  54  44 SE13      29.94F
MOUNT PLEASANT SUNNY     79  55  44 E5        29.94S
MINEOLA        SUNNY     79  55  44 E3        29.92F
TYLER          SUNNY     81  53  37 E10       29.90F
LONGVIEW       SUNNY     79  59  50 E6        29.91S
MARSHALL       SUNNY     77  56  49 E7        29.94S
ATHENS         SUNNY     77  55  47 SE8       29.89S
PALESTINE      SUNNY     81  59  47 SE8       29.91S
JACKSONVILLE   SUNNY     79  59  49 E7        29.93F
HENDERSON      SUNNY     80  58  46 E7        29.92S
CENTER         FAIR      82  61  49 E7        29.91R
NACOGDOCHES    SUNNY     79  63  57 SE8       29.90S
LUFKIN         SUNNY     81  65  58 SE7       29.89F
$$

SUPPLEMENTAL OBSERVATIONS (CENTRAL)

CITY           SKY/WX    TMP DP  RH WIND       PRES   REMARKS
$$

SUPPLEMENTAL OBSERVATIONS (WEST)

CITY           SKY/WX    TMP DP  RH WIND       PRES   REMARKS
$$

SUPPLEMENTAL OBSERVATIONS (EAST)

CITY           SKY/WX    TMP DP  RH WIND       PRES   REMARKS
$$

SUPPLEMENTAL OBSERVATIONS ARE A COLLECTION OF AUTOMATED INSTRUMENTS
THAT ARE MAINTAINED BY A VARIETY OF FEDERAL AND STATE AGENCIES.
CERTAIN ELEMENTS...SUCH AS HUMIDITY VALUES AND SUSTAINED WIND
SPEEDS...MAY BE APPROXIMATED.





USA.gov is the U.S. government's official web portal to all federal, state and local government web resources and services.